Regional Weather Roundup
Issued by NWS

Home | Current Version | Previous Version | Text Only | Print | Product List | Glossary On
Versions: 1 2 3 4 5 6 7 8 9 10 11 12 13 14 15 16 17 18 19 20 21 22 23 24 25 26 27
000
ASUS44 KLIX 191512
RWRLA
LOUISIANA WEATHER ROUNDUP
NATIONAL WEATHER SERVICE NEW ORLEANS LA
900 AM CST SUN FEB 19 2017

NOTE: "FAIR" INDICATES FEW OR NO CLOUDS BELOW 12,000 FEET WITH NO
      SIGNIFICANT WEATHER AND/OR OBSTRUCTIONS TO VISIBILITY.
      SKY/WX - SKY CONDITION AND SIGNIFICANT WEATHER.
      TMP - AIR TEMPERATURE.    DP   - DEWPOINT TEMPERATURE.
      RH  - RELATIVE HUMIDITY.  PRES - PRESSURE.
      HX  - HEAT INDEX.         WCI  - WIND CHILL INDEX.

*  THESE STATIONS ARE NOT NWS OR FAA STATIONS AND ARE NOT UNDER
   NWS QUALITY CONTROL.

LAZ040-048-061>063-065-066-069-191600-
SOUTHEAST LOUISIANA

CITY           SKY/WX    TMP DP  RH WIND       PRES   REMARKS
N.O. AUDUBON   NOT AVBL
N.O. INTL ARPT CLOUDY    62  62 100 NE6       30.07S FOG
N.O. LAKEFRONT FOG       62  62 100 NE7       30.09R VSB 1
N.O. DOWNTOWN*   N/A     65  62  90 NE7       30.08R
RESERVE*       FOG       63  61  94 NE6       30.07S VSB 1/4
SLIDELL        CLOUDY    61  60  97 NE3       30.09R
BATON ROUGE    FOG       61  60  97 E3        30.07R VSB 1/2
BOOTHVILLE     FOG       62  62 100 NE6       30.08R VSB 1/4
BELLE CHASSE   CLOUDY    65  65 100 E7        30.07R FOG
BOGALUSA*      CLOUDY    58  55  91 CALM      30.12R VSB<1/4
GALLIANO*      CLOUDY    69  67  92 E5        30.05R FOG
NEW ROADS*     FOG       59  59 100 E3        30.07R VSB 3/4
GONZALES*      FOG       61  61 100 CALM      30.06S VSB 3/4
HAMMOND*       FOG       59  55  88 NE6       30.08S VSB 3/4
HOUMA*         FOG       64  64 100 NE7       30.05R VSB 1/4
PORT FOURCHON* CLOUDY    68  68 100 E8        30.05R FOG

$$

LAZ041-044-053-054-191600-
SOUTHWEST LOUISIANA

CITY           SKY/WX    TMP DP  RH WIND       PRES   REMARKS
LAKE CHARLES   CLOUDY    69  67  93 E9        30.02R
LAFAYETTE      CLOUDY    66  65  96 VRB5      30.06R FOG
PATTERSON      CLOUDY    66  66 100 E5        30.06R FOG
SALT POINT       N/A     67  66  97 SE5       30.03R
NEW IBERIA     CLOUDY    66  63  90 E7        30.06R FOG
CHENAULT AIRPK CLOUDY   N/A N/A N/A E8        30.02R FOG

$$

LAZ027-028-191600-
CENTRAL LOUISIANA

CITY           SKY/WX    TMP DP  RH WIND       PRES   REMARKS
FORT POLK      CLOUDY    66  64  94 SE8       30.03R
ALEXANDRIA INT CLOUDY    64  61  90 SE7       30.04R
ALEXANDRIA     CLOUDY    63  61  93 VRB3      30.06R

$$

LAZ001-002-191600-
NORTHWEST LOUISIANA

CITY           SKY/WX    TMP DP  RH WIND       PRES   REMARKS
SHREVEPORT     CLOUDY    63  62  97 SE9       30.02R FOG
BARKSDALE AFB  PTSUNNY   61  61 100 SE7       30.03R
DTN SHREVEPORT CLOUDY    63  61  93 SE7       30.03R

$$

LAZ014-016-191600-
NORTHEAST LOUISIANA

CITY           SKY/WX    TMP DP  RH WIND       PRES   REMARKS
MONROE         CLOUDY    58  57  97 CALM      30.09S FOG
TALLULAH       SUNNY     61  55  81 SE6       30.10R

$$





USA.gov is the U.S. government's official web portal to all federal, state and local government web resources and services.